Location: Nelson
(38.9945°N, 93.0321°W)
Time: 04:13:20
(UTC+00:00)

ACS3 Solar Sail - Visible Passes

Search period start: 24 June 2024 00:00
Search period end: 04 July 2024 00:00
Orbit: 992 x 1024 km, 97.4° (Epoch: 23 June)

Date Brightness Start Highest point End Pass type
(mag) Time Alt. Az. Time Alt. Az. Time Alt. Az.
24 Jun 5.3 03:06:29 19° SE 03:10:43 46° ENE 03:16:36 10° N visible
24 Jun 6.4 04:51:49 18° SW 04:55:00 26° W 05:00:05 10° NW visible
25 Jun 4.8 03:41:16 26° SSE 03:45:01 87° ENE 03:51:16 10° N visible
25 Jun 7.1 05:27:22 10° WSW 05:29:51 12° W 05:32:20 10° WNW visible
26 Jun 6.1 02:30:48 10° ESE 02:35:44 26° ENE 02:40:41 10° NNE visible
26 Jun 5.5 04:16:04 25° SSW 04:19:30 49° W 04:25:30 10° NNW visible
27 Jun 5.3 03:05:31 18° SE 03:09:51 48° ENE 03:15:46 10° N visible
27 Jun 6.4 04:50:52 17° SW 04:54:09 25° W 04:59:10 10° NW visible
28 Jun 4.8 03:40:19 25° SSE 03:44:09 90° NE 03:50:24 10° NNW visible
28 Jun 7.1 05:26:49 10° WSW 05:29:01 12° W 05:31:14 10° WNW visible
29 Jun 6.0 02:29:52 10° ESE 02:34:52 26° ENE 02:39:51 10° NNE visible
29 Jun 5.5 04:15:07 24° SSW 04:18:38 47° W 04:24:36 10° NNW visible
30 Jun 5.2 03:04:35 18° SE 03:08:59 49° ENE 03:14:56 10° N visible
30 Jun 6.5 04:49:56 16° SW 04:53:19 24° W 04:58:14 10° NW visible
01 Jul 4.8 03:39:23 25° SSE 03:43:18 88° W 03:49:32 10° NNW visible
01 Jul 7.1 05:26:18 10° WSW 05:28:11 11° W 05:30:05 10° WNW visible
02 Jul 6.0 02:28:55 10° ESE 02:33:58 27° ENE 02:39:03 10° NNE visible
02 Jul 5.6 04:14:11 23° SSW 04:17:47 46° W 04:23:43 10° NNW visible
03 Jul 5.2 03:03:39 18° SE 03:08:06 51° ENE 03:14:05 10° N visible
03 Jul 6.5 04:49:00 15° SW 04:52:28 23° W 04:57:19 10° NW visible
